QPF
0.00 0.00 0.00 0.00 0.00 0.00 0.00 0.00 0.00 0.00 0.00 0.00 0.00 0.00 0.00 0.00 0.00 0.00 0.00 0.00 0.00 0.00 0.00 0.00 0.00 0.00 0.00 0.00 0.00 0.00 0.00 0.00 0.00 0.00 0.01 0.01 0.01 0.01 0.01 0.01 0.00 0.00 0.01
0.00 0.00 0.00 0.00 0.00 0.00 0.00 0.00 0.00 0.00 0.00 0.00 0.00 0.00 0.00 0.00 0.00 0.00 0.00 0.00 0.00 0.00 0.00 0.00 0.00 0.00 0.00 0.00 0.00 0.00 0.00 0.00 0.00 0.00 0.00 0.01 0.01 0.01 0.01 0.01 0.00 0.00 0.00
0.00 0.00 0.00 0.00 0.00 0.00 0.00 0.00 0.00 0.00 0.00 0.00 0.00 0.00 0.00 0.00 0.00 0.00 0.00 0.00 0.00 0.00 0.00 0.00 0.00 0.00 0.00 0.00 0.00 0.00 0.00 0.00 0.00 0.00 0.00 0.01 0.01 0.01 0.01 0.01 0.00 0.00 0.00
0.00 0.00 0.00 0.00 0.00 0.00 0.00 0.00 0.00 0.00 0.00 0.00 0.00 0.00 0.00 0.00 0.00 0.00 0.00 0.00 0.00 0.00 0.00 0.00 0.00 0.00 0.00 0.00 0.00 0.00 0.00 0.00 0.00 0.00 0.01 0.03 0.01 0.01 0.01 0.00 0.00 0.00 0.00
0.00 0.00 0.00 0.00 0.00 0.00 0.00 0.00 0.00 0.00 0.00 0.00 0.00 0.00 0.00 0.00 0.00 0.00 0.00 0.00 0.00 0.00 0.00 0.00 0.00 0.00 0.00 0.00 0.00 0.00 0.00 0.00 0.00 0.00 0.01 0.04 0.02 0.01 0.01 0.01 0.00 0.00 0.00
0.00 0.00 0.00 0.00 0.00 0.00 0.00 0.00 0.00 0.00 0.00 0.00 0.00 0.00 0.00 0.00 0.00 0.00 0.00 0.00 0.00 0.00 0.00 0.00 0.00 0.00 0.00 0.00 0.00 0.00 0.00 0.00 0.00 0.00 0.00 0.01 0.01 0.02 0.02 0.01 0.00 0.00 0.00
0.00 0.00 0.00 0.00 0.00 0.00 0.00 0.00 0.00 0.00 0.00 0.00 0.00 0.00 0.00 0.00 0.00 0.00 0.00 0.00 0.00 0.00 0.00 0.00 0.00 0.00 0.00 0.00 0.00 0.00 0.00 0.00 0.00 0.00 0.00 0.00 0.00 0.01 0.02 0.01 0.01 0.00 0.00
0.00 0.00 0.00 0.00 0.00 0.00 0.00 0.00 0.00 0.00 0.00 0.00 0.00 0.00 0.00 0.00 0.00 0.00 0.00 0.00 0.00 0.00 0.00 0.00 0.00 0.00 0.00 0.00 0.00 0.00 0.00 0.00 0.00 0.00 0.00 0.00 0.00 0.01 0.02 0.02 0.01 0.00 0.00
0.00 0.00 0.00 0.00 0.00 0.00 0.00 0.00 0.00 0.00 0.00 0.00 0.00 0.00 0.00 0.00 0.00 0.00 0.00 0.00 0.00 0.00 0.00 0.00 0.00 0.00 0.00 0.00 0.00 0.00 0.00 0.00 0.00 0.00 0.00 0.00 0.00 0.02 0.04 0.03 0.02 0.01 0.00
0.00 0.00 0.00 0.00 0.00 0.00 0.00 0.00 0.00 0.00 0.00 0.00 0.00 0.00 0.00 0.00 0.00 0.00 0.00 0.00 0.00 0.01 0.01 0.01 0.00 0.00 0.00 0.00 0.00 0.00 0.00 0.00 0.00 0.00 0.00 0.00 0.01 0.04 0.06 0.04 0.02 0.01 0.01
0.00 0.00 0.00 0.00 0.00 0.00 0.00 0.00 0.00 0.00 0.00 0.00 0.00 0.00 0.00 0.00 0.00 0.00 0.00 0.02 0.03 0.04 0.03 0.03 0.03 0.01 0.01 0.01 0.01 0.01 0.01 0.00 0.00 0.00 0.00 0.00 0.01 0.05 0.06 0.04 0.03 0.02 0.01
0.00 0.00 0.00 0.00 0.00 0.00 0.00 0.00 0.00 0.00 0.00 0.00 0.00 0.00 0.00 0.00 0.00 0.00 0.01 0.04 0.09 0.11 0.11 0.11 0.11 0.07 0.05 0.03 0.02 0.03 0.02 0.01 0.01 0.01 0.01 0.01 0.02 0.06 0.08 0.06 0.03 0.02 0.01
0.01 0.00 0.01 0.01 0.01 0.00 0.01 0.01 0.01 0.01 0.01 0.01 0.01 0.01 0.01 0.01 0.01 0.02 0.05 0.07 0.12 0.14 0.09 0.14 0.16 0.11 0.09 0.08 0.07 0.06 0.05 0.05 0.04 0.05 0.04 0.03 0.06 0.11 0.12 0.08 0.06 0.04 0.02
0.03 0.01 0.01 0.01 0.01 0.01 0.00 0.01 0.01 0.01 0.02 0.01 0.02 0.02 0.02 0.03 0.05 0.06 0.08 0.10 0.10 0.09 0.10 0.11 0.13 0.15 0.16 0.16 0.17 0.15 0.14 0.14 0.13 0.12 0.12 0.11 0.11 0.14 0.17 0.13 0.08 0.06 0.04
0.10 0.07 0.05 0.02 0.01 0.01 0.02 0.02 0.02 0.02 0.03 0.02 0.03 0.03 0.05 0.08 0.09 0.09 0.08 0.09 0.09 0.11 0.13 0.14 0.13 0.16 0.18 0.18 0.18 0.18 0.21 0.22 0.19 0.20 0.21 0.21 0.19 0.17 0.22 0.22 0.15 0.11 0.09
0.07 0.05 0.04 0.03 0.03 0.04 0.03 0.02 0.03 0.03 0.03 0.03 0.04 0.06 0.08 0.12 0.14 0.12 0.10 0.09 0.09 0.09 0.10 0.12 0.11 0.12 0.15 0.15 0.15 0.19 0.19 0.24 0.29 0.35 0.35 0.26 0.24 0.23 0.22 0.26 0.27 0.22 0.16
0.10 0.06 0.06 0.06 0.06 0.05 0.03 0.03 0.04 0.04 0.05 0.05 0.06 0.07 0.09 0.15 0.17 0.17 0.12 0.07 0.07 0.08 0.09 0.09 0.10 0.11 0.12 0.12 0.11 0.12 0.11 0.13 0.19 0.24 0.29 0.28 0.26 0.26 0.30 0.33 0.32 0.24 0.16
0.18 0.15 0.15 0.14 0.11 0.06 0.04 0.04 0.06 0.07 0.08 0.08 0.07 0.07 0.07 0.10 0.11 0.18 0.14 0.07 0.07 0.09 0.08 0.08 0.09 0.08 0.08 0.08 0.07 0.07 0.07 0.07 0.08 0.11 0.13 0.16 0.22 0.21 0.25 0.29 0.30 0.23 0.17
0.36 0.41 0.45 0.31 0.17 0.12 0.10 0.11 0.11 0.11 0.10 0.08 0.07 0.08 0.07 0.08 0.08 0.08 0.07 0.05 0.06 0.05 0.06 0.06 0.06 0.06 0.04 0.04 0.04 0.04 0.04 0.04 0.05 0.06 0.06 0.06 0.11 0.18 0.22 0.23 0.26 0.24 0.18
0.53 0.62 0.60 0.39 0.29 0.27 0.21 0.19 0.17 0.14 0.10 0.08 0.09 0.11 0.09 0.08 0.09 0.09 0.05 0.03 0.02 0.03 0.03 0.04 0.04 0.03 0.03 0.03 0.03 0.02 0.01 0.02 0.03 0.03 0.03 0.05 0.05 0.08 0.13 0.13 0.13 0.11 0.11
0.73 0.69 0.66 0.61 0.48 0.37 0.31 0.24 0.17 0.12 0.07 0.05 0.05 0.07 0.09 0.11 0.11 0.07 0.02 0.01 0.01 0.01 0.01 0.01 0.01 0.02 0.02 0.02 0.02 0.01 0.01 0.01 0.02 0.01 0.02 0.03 0.03 0.05 0.08 0.09 0.10 0.08 0.07
0.73 0.67 0.57 0.46 0.33 0.26 0.23 0.18 0.13 0.09 0.09 0.11 0.11 0.12 0.13 0.10 0.06 0.03 0.01 0.00 0.00 0.00 0.00 0.00 0.01 0.00 0.00 0.01 0.01 0.01 0.01 0.01 0.01 0.01 0.03 0.04 0.05 0.06 0.06 0.07 0.08 0.08 0.10
0.51 0.54 0.41 0.27 0.18 0.16 0.15 0.12 0.09 0.09 0.08 0.09 0.16 0.18 0.14 0.09 0.06 0.02 0.01 0.01 0.01 0.01 0.00 0.00 0.00 0.00 0.00 0.00 0.01 0.01 0.01 0.01 0.00 0.00 0.01 0.02 0.03 0.04 0.04 0.07 0.08 0.07 0.08
0.28 0.26 0.25 0.18 0.14 0.12 0.11 0.10 0.09 0.08 0.09 0.08 0.09 0.11 0.10 0.07 0.05 0.03 0.02 0.02 0.02 0.01 0.01 0.00 0.00 0.00 0.00 0.00 0.00 0.01 0.01 0.01 0.01 0.00 0.00 0.01 0.02 0.02 0.03 0.04 0.06 0.08 0.11
0.17 0.15 0.16 0.15 0.14 0.14 0.12 0.10 0.08 0.09 0.08 0.06 0.06 0.08 0.10 0.08 0.05 0.04 0.05 0.05 0.03 0.03 0.03 0.02 0.01 0.00 0.00 0.00 0.00 0.00 0.01 0.01 0.01 0.01 0.00 0.01 0.01 0.01 0.01 0.03 0.05 0.07 0.14
0.16 0.16 0.16 0.17 0.17 0.15 0.13 0.11 0.10 0.08 0.07 0.06 0.06 0.05 0.06 0.06 0.06 0.06 0.07 0.07 0.06 0.04 0.04 0.03 0.03 0.01 0.01 0.00 0.00 0.00 0.00 0.01 0.01 0.01 0.01 0.01 0.01 0.01 0.01 0.02 0.03 0.05 0.07
MSLP
1011.18 1010.67 1010.37 1010.37 1010.66 1011.17 1011.77 1012.33 1012.74 1012.95 1012.97 1012.86 1012.73 1012.66 1012.73 1012.93 1013.26 1013.64 1014.01 1014.30 1014.49 1014.57 1014.57 1014.56 1014.56 1014.62 1014.74 1014.89 1015.06 1015.21 1015.32 1015.38 1015.41 1015.42 1015.44 1015.49 1015.57 1015.66 1015.76 1015.85 1015.91 1015.96 1016.01
1010.64 1010.28 1010.13 1010.24 1010.62 1011.17 1011.77 1012.31 1012.70 1012.89 1012.91 1012.83 1012.74 1012.72 1012.83 1013.07 1013.40 1013.77 1014.10 1014.35 1014.49 1014.56 1014.57 1014.57 1014.61 1014.70 1014.84 1015.01 1015.17 1015.31 1015.40 1015.44 1015.47 1015.49 1015.53 1015.61 1015.72 1015.84 1015.95 1016.04 1016.10 1016.14 1016.18
1010.03 1009.83 1009.82 1010.06 1010.51 1011.10 1011.72 1012.25 1012.63 1012.82 1012.87 1012.83 1012.80 1012.84 1012.99 1013.24 1013.55 1013.87 1014.13 1014.32 1014.42 1014.46 1014.46 1014.49 1014.56 1014.69 1014.85 1015.03 1015.20 1015.32 1015.39 1015.44 1015.46 1015.51 1015.59 1015.71 1015.85 1016.00 1016.13 1016.23 1016.30 1016.34 1016.37
1009.45 1009.40 1009.52 1009.87 1010.39 1011.01 1011.62 1012.14 1012.51 1012.73 1012.81 1012.84 1012.88 1012.97 1013.15 1013.40 1013.67 1013.93 1014.12 1014.23 1014.28 1014.29 1014.30 1014.34 1014.45 1014.61 1014.80 1014.99 1015.15 1015.27 1015.34 1015.38 1015.42 1015.50 1015.61 1015.77 1015.95 1016.13 1016.28 1016.39 1016.46 1016.51 1016.55
1008.99 1009.06 1009.30 1009.72 1010.28 1010.91 1011.50 1012.00 1012.36 1012.58 1012.71 1012.80 1012.90 1013.05 1013.26 1013.50 1013.74 1013.93 1014.05 1014.09 1014.09 1014.08 1014.10 1014.18 1014.32 1014.51 1014.72 1014.92 1015.08 1015.19 1015.25 1015.30 1015.36 1015.46 1015.60 1015.79 1016.00 1016.19 1016.36 1016.48 1016.56 1016.61 1016.68
1008.70 1008.87 1009.20 1009.67 1010.24 1010.83 1011.38 1011.83 1012.15 1012.37 1012.53 1012.67 1012.83 1013.04 1013.27 1013.51 1013.72 1013.86 1013.92 1013.92 1013.89 1013.88 1013.91 1014.02 1014.19 1014.41 1014.64 1014.84 1014.99 1015.09 1015.15 1015.20 1015.27 1015.39 1015.55 1015.76 1015.97 1016.17 1016.33 1016.45 1016.53 1016.60 1016.68
1008.59 1008.84 1009.23 1009.72 1010.27 1010.80 1011.27 1011.63 1011.90 1012.09 1012.26 1012.43 1012.64 1012.90 1013.16 1013.41 1013.60 1013.71 1013.74 1013.72 1013.69 1013.68 1013.75 1013.88 1014.09 1014.33 1014.56 1014.76 1014.90 1014.99 1015.04 1015.08 1015.16 1015.28 1015.44 1015.64 1015.84 1016.03 1016.17 1016.27 1016.35 1016.43 1016.55
1008.61 1008.93 1009.36 1009.85 1010.36 1010.81 1011.17 1011.44 1011.62 1011.77 1011.92 1012.11 1012.36 1012.64 1012.94 1013.20 1013.39 1013.49 1013.52 1013.50 1013.48 1013.50 1013.60 1013.77 1013.99 1014.24 1014.48 1014.66 1014.78 1014.85 1014.88 1014.92 1014.99 1015.11 1015.26 1015.44 1015.61 1015.75 1015.86 1015.94 1016.01 1016.11 1016.25
1008.65 1009.04 1009.51 1010.01 1010.46 1010.82 1011.08 1011.24 1011.33 1011.42 1011.55 1011.74 1012.01 1012.32 1012.63 1012.91 1013.11 1013.22 1013.25 1013.25 1013.26 1013.31 1013.43 1013.63 1013.87 1014.12 1014.33 1014.50 1014.60 1014.65 1014.67 1014.70 1014.75 1014.85 1014.99 1015.13 1015.26 1015.36 1015.43 1015.49 1015.55 1015.65 1015.82
1008.63 1009.10 1009.61 1010.10 1010.51 1010.80 1010.96 1011.03 1011.05 1011.09 1011.19 1011.38 1011.65 1011.97 1012.30 1012.58 1012.78 1012.90 1012.95 1012.96 1013.00 1013.08 1013.22 1013.43 1013.67 1013.91 1014.11 1014.25 1014.32 1014.35 1014.36 1014.38 1014.43 1014.52 1014.63 1014.74 1014.83 1014.89 1014.93 1014.95 1015.00 1015.12 1015.31
1008.46 1009.00 1009.56 1010.06 1010.44 1010.67 1010.78 1010.79 1010.77 1010.78 1010.87 1011.05 1011.33 1011.65 1011.97 1012.24 1012.44 1012.55 1012.61 1012.64 1012.69 1012.78 1012.94 1013.15 1013.38 1013.59 1013.77 1013.89 1013.94 1013.96 1013.96 1013.98 1014.02 1014.10 1014.19 1014.28 1014.34 1014.37 1014.38 1014.40 1014.45 1014.57 1014.79
1008.11 1008.72 1009.32 1009.82 1010.19 1010.40 1010.48 1010.48 1010.45 1010.47 1010.57 1010.77 1011.05 1011.36 1011.67 1011.92 1012.09 1012.19 1012.24 1012.27 1012.33 1012.43 1012.59 1012.78 1013.00 1013.19 1013.34 1013.43 1013.47 1013.48 1013.48 1013.50 1013.54 1013.61 1013.69 1013.77 1013.82 1013.84 1013.85 1013.87 1013.93 1014.07 1014.30
1007.62 1008.26 1008.86 1009.37 1009.73 1009.94 1010.04 1010.07 1010.09 1010.15 1010.30 1010.52 1010.81 1011.11 1011.39 1011.61 1011.75 1011.83 1011.86 1011.89 1011.94 1012.04 1012.19 1012.37 1012.56 1012.73 1012.85 1012.92 1012.95 1012.95 1012.95 1012.97 1013.01 1013.08 1013.16 1013.23 1013.28 1013.32 1013.34 1013.38 1013.47 1013.63 1013.88
1007.06 1007.68 1008.25 1008.73 1009.08 1009.31 1009.45 1009.54 1009.64 1009.79 1010.00 1010.27 1010.58 1010.87 1011.13 1011.31 1011.42 1011.47 1011.48 1011.50 1011.55 1011.65 1011.79 1011.96 1012.13 1012.27 1012.37 1012.42 1012.42 1012.41 1012.41 1012.42 1012.46 1012.53 1012.61 1012.68 1012.75 1012.80 1012.85 1012.93 1013.06 1013.25 1013.51
1006.56 1007.09 1007.57 1007.99 1008.30 1008.54 1008.73 1008.91 1009.11 1009.36 1009.65 1009.98 1010.32 1010.62 1010.85 1011.01 1011.09 1011.12 1011.12 1011.14 1011.20 1011.30 1011.44 1011.61 1011.76 1011.88 1011.95 1011.98 1011.96 1011.93 1011.91 1011.91 1011.93 1011.98 1012.05 1012.13 1012.21 1012.29 1012.38 1012.50 1012.67 1012.89 1013.17
1006.23 1006.60 1006.95 1007.25 1007.51 1007.74 1007.97 1008.22 1008.53 1008.87 1009.26 1009.65 1010.01 1010.32 1010.54 1010.68 1010.75 1010.77 1010.79 1010.83 1010.91 1011.03 1011.19 1011.36 1011.50 1011.61 1011.66 1011.66 1011.62 1011.56 1011.50 1011.46 1011.45 1011.47 1011.52 1011.58 1011.66 1011.76 1011.89 1012.05 1012.26 1012.51 1012.80
1006.16 1006.34 1006.51 1006.66 1006.83 1007.02 1007.27 1007.58 1007.96 1008.40 1008.85 1009.29 1009.68 1009.99 1010.21 1010.35 1010.42 1010.46 1010.50 1010.58 1010.70 1010.86 1011.04 1011.23 1011.38 1011.47 1011.51 1011.48 1011.41 1011.31 1011.21 1011.12 1011.06 1011.03 1011.03 1011.07 1011.13 1011.23 1011.37 1011.56 1011.79 1012.07 1012.37
1006.41 1006.37 1006.34 1006.33 1006.38 1006.52 1006.76 1007.09 1007.52 1008.00 1008.49 1008.96 1009.36 1009.67 1009.88 1010.02 1010.10 1010.17 1010.26 1010.38 1010.55 1010.76 1010.99 1011.19 1011.36 1011.45 1011.48 1011.43 1011.33 1011.20 1011.05 1010.91 1010.79 1010.70 1010.64 1010.62 1010.64 1010.72 1010.84 1011.03 1011.27 1011.55 1011.84
1006.94 1006.71 1006.49 1006.33 1006.27 1006.33 1006.52 1006.85 1007.28 1007.76 1008.26 1008.72 1009.10 1009.40 1009.60 1009.73 1009.83 1009.93 1010.06 1010.23 1010.46 1010.71 1010.97 1011.21 1011.40 1011.50 1011.53 1011.48 1011.37 1011.21 1011.03 1010.85 1010.67 1010.51 1010.38 1010.29 1010.25 1010.26 1010.35 1010.50 1010.71 1010.97 1011.24
1007.70 1007.32 1006.96 1006.67 1006.51 1006.49 1006.63 1006.91 1007.31 1007.76 1008.22 1008.64 1008.98 1009.23 1009.41 1009.52 1009.62 1009.74 1009.89 1010.10 1010.37 1010.66 1010.96 1011.22 1011.43 1011.56 1011.61 1011.58 1011.48 1011.32 1011.14 1010.93 1010.71 1010.49 1010.29 1010.12 1009.99 1009.93 1009.93 1010.01 1010.16 1010.36 1010.59
1008.57 1008.12 1007.68 1007.31 1007.07 1006.99 1007.07 1007.29 1007.62 1008.01 1008.40 1008.75 1009.02 1009.21 1009.33 1009.42 1009.49 1009.59 1009.75 1009.98 1010.25 1010.56 1010.87 1011.16 1011.39 1011.56 1011.65 1011.66 1011.61 1011.50 1011.33 1011.13 1010.90 1010.64 1010.38 1010.13 1009.91 1009.74 1009.64 1009.61 1009.66 1009.78 1009.93
1009.44 1008.98 1008.53 1008.14 1007.87 1007.74 1007.77 1007.93 1008.19 1008.49 1008.80 1009.05 1009.24 1009.35 1009.40 1009.42 1009.44 1009.51 1009.64 1009.83 1010.09 1010.38 1010.69 1010.99 1011.25 1011.46 1011.61 1011.69 1011.71 1011.67 1011.57 1011.42 1011.20 1010.93 1010.63 1010.31 1009.99 1009.71 1009.49 1009.33 1009.26 1009.26 1009.31
1010.18 1009.79 1009.39 1009.03 1008.77 1008.63 1008.62 1008.73 1008.91 1009.13 1009.34 1009.50 1009.59 1009.61 1009.58 1009.52 1009.47 1009.47 1009.53 1009.66 1009.87 1010.12 1010.40 1010.70 1010.98 1011.23 1011.45 1011.62 1011.74 1011.80 1011.79 1011.71 1011.55 1011.30 1010.98 1010.61 1010.21 1009.82 1009.47 1009.18 1008.96 1008.82 1008.76
1010.71 1010.44 1010.13 1009.85 1009.63 1009.50 1009.48 1009.54 1009.66 1009.81 1009.94 1010.02 1010.02 1009.95 1009.84 1009.69 1009.56 1009.47 1009.44 1009.49 1009.61 1009.80 1010.04 1010.30 1010.59 1010.88 1011.16 1011.42 1011.65 1011.82 1011.92 1011.93 1011.84 1011.63 1011.32 1010.93 1010.48 1010.00 1009.54 1009.12 1008.76 1008.48 1008.28
1011.03 1010.88 1010.69 1010.49 1010.33 1010.23 1010.21 1010.25 1010.33 1010.43 1010.50 1010.51 1010.45 1010.31 1010.12 1009.90 1009.69 1009.50 1009.38 1009.33 1009.35 1009.46 1009.63 1009.86 1010.13 1010.44 1010.76 1011.09 1011.41 1011.68 1011.88 1011.98 1011.97 1011.83 1011.56 1011.17 1010.70 1010.17 1009.62 1009.10 1008.62 1008.22 1007.89
1011.15 1011.11 1011.03 1010.91 1010.81 1010.74 1010.73 1010.76 1010.83 1010.89 1010.93 1010.90 1010.80 1010.62 1010.38 1010.10 1009.82 1009.56 1009.34 1009.20 1009.13 1009.15 1009.24 1009.41 1009.64 1009.94 1010.28 1010.64 1011.01 1011.34 1011.62 1011.80 1011.87 1011.80 1011.58 1011.24 1010.78 1010.24 1009.66 1009.07 1008.52 1008.01 1007.58
Thickness
5836 5836 5833 5830 5826 5822 5819 5816 5813 5811 5808 5806 5803 5800 5797 5795 5792 5789 5787 5784 5781 5779 5776 5774 5772 5770 5768 5766 5764 5763 5761 5759 5757 5756 5754 5752 5751 5751 5750 5748 5747 5746 5746
5844 5839 5835 5831 5827 5823 5819 5816 5814 5811 5808 5805 5802 5800 5797 5794 5791 5789 5786 5784 5781 5779 5776 5774 5772 5770 5768 5766 5764 5762 5760 5759 5757 5755 5754 5752 5751 5751 5750 5749 5747 5746 5745
5845 5840 5836 5832 5828 5824 5820 5817 5813 5811 5808 5805 5802 5799 5796 5793 5791 5788 5786 5783 5781 5779 5776 5774 5771 5769 5767 5766 5764 5762 5760 5759 5757 5755 5753 5752 5751 5750 5750 5749 5747 5745 5744
5846 5841 5836 5832 5828 5824 5820 5817 5813 5810 5807 5804 5801 5798 5795 5793 5790 5787 5785 5783 5780 5778 5776 5773 5771 5769 5767 5765 5764 5762 5760 5758 5757 5755 5753 5752 5751 5750 5749 5749 5747 5745 5744
5845 5840 5836 5832 5828 5824 5820 5816 5813 5810 5806 5803 5800 5797 5795 5792 5789 5787 5784 5782 5780 5777 5775 5773 5771 5769 5767 5765 5763 5762 5760 5758 5756 5755 5753 5752 5751 5750 5749 5748 5747 5746 5744
5842 5839 5835 5831 5827 5823 5819 5816 5812 5809 5806 5802 5799 5796 5794 5791 5789 5786 5784 5781 5779 5777 5774 5772 5770 5768 5766 5764 5763 5761 5760 5758 5756 5755 5753 5752 5751 5750 5749 5748 5748 5746 5745
5840 5837 5834 5830 5826 5822 5818 5815 5811 5808 5805 5802 5798 5795 5792 5790 5787 5785 5782 5780 5778 5776 5774 5771 5769 5767 5766 5764 5762 5761 5760 5758 5757 5755 5754 5753 5752 5752 5750 5749 5748 5747 5745
5841 5836 5832 5828 5824 5820 5817 5813 5810 5807 5804 5800 5797 5794 5791 5788 5786 5783 5781 5779 5776 5774 5772 5770 5768 5767 5765 5763 5762 5760 5759 5758 5758 5756 5754 5753 5753 5752 5752 5750 5749 5748 5746
5839 5834 5830 5826 5822 5819 5815 5812 5808 5805 5801 5798 5795 5792 5789 5786 5783 5781 5779 5776 5774 5772 5770 5769 5767 5765 5764 5762 5760 5759 5758 5757 5757 5756 5755 5754 5753 5752 5752 5751 5750 5749 5747
5835 5832 5828 5825 5821 5817 5813 5810 5806 5802 5799 5796 5793 5789 5786 5783 5781 5778 5776 5774 5772 5770 5769 5767 5765 5764 5762 5760 5759 5757 5756 5756 5756 5755 5755 5754 5753 5752 5751 5751 5750 5749 5748
5831 5828 5826 5822 5818 5814 5810 5807 5803 5800 5796 5793 5790 5787 5784 5781 5778 5776 5773 5771 5770 5768 5767 5765 5763 5762 5760 5758 5757 5755 5754 5754 5754 5754 5754 5754 5753 5752 5752 5751 5750 5749 5748
5827 5825 5823 5821 5817 5812 5808 5805 5801 5797 5794 5791 5788 5785 5781 5778 5775 5772 5770 5769 5767 5766 5765 5764 5761 5760 5757 5756 5755 5753 5752 5752 5751 5752 5752 5753 5753 5753 5752 5752 5751 5750 5749
5828 5825 5822 5819 5816 5811 5807 5803 5798 5795 5791 5788 5785 5781 5778 5774 5771 5769 5767 5766 5765 5765 5763 5762 5760 5757 5756 5754 5753 5752 5750 5750 5750 5750 5751 5752 5752 5753 5752 5751 5751 5750 5749
5825 5823 5821 5818 5814 5809 5805 5802 5797 5793 5789 5786 5782 5778 5774 5770 5767 5765 5764 5763 5763 5763 5761 5759 5758 5756 5754 5753 5751 5750 5748 5747 5747 5748 5748 5749 5750 5751 5751 5750 5749 5749 5748
5823 5820 5819 5815 5811 5806 5802 5798 5795 5792 5788 5785 5781 5776 5773 5768 5765 5763 5760 5760 5760 5759 5758 5756 5754 5753 5751 5750 5749 5748 5746 5745 5745 5745 5745 5746 5748 5748 5748 5747 5747 5746 5746
5821 5818 5816 5812 5808 5804 5799 5795 5793 5789 5786 5782 5778 5775 5770 5767 5763 5760 5758 5756 5755 5755 5754 5752 5751 5749 5748 5747 5746 5746 5745 5744 5743 5742 5742 5742 5744 5745 5745 5744 5744 5744 5743
5815 5814 5810 5808 5804 5799 5795 5792 5788 5784 5781 5777 5774 5770 5766 5762 5759 5757 5754 5752 5751 5750 5749 5748 5746 5745 5743 5743 5742 5743 5742 5741 5741 5740 5740 5740 5741 5742 5742 5741 5742 5742 5742
5807 5803 5800 5801 5796 5792 5788 5784 5781 5777 5773 5769 5766 5763 5761 5758 5755 5752 5750 5748 5747 5745 5745 5743 5742 5740 5739 5738 5738 5739 5740 5739 5739 5739 5739 5738 5738 5739 5739 5739 5740 5740 5741
5795 5792 5787 5787 5787 5785 5780 5777 5772 5770 5765 5763 5760 5757 5753 5751 5749 5746 5743 5743 5742 5741 5739 5739 5737 5736 5734 5734 5735 5736 5737 5737 5738 5738 5738 5738 5737 5737 5737 5737 5738 5738 5738
5780 5777 5777 5773 5773 5771 5769 5766 5762 5760 5758 5756 5754 5751 5747 5745 5744 5741 5738 5737 5736 5735 5734 5733 5732 5732 5731 5731 5732 5733 5734 5736 5736 5737 5737 5737 5736 5736 5735 5735 5735 5735 5735
5770 5761 5761 5759 5759 5758 5757 5755 5751 5749 5749 5748 5748 5747 5743 5741 5738 5736 5734 5732 5732 5730 5730 5729 5728 5727 5727 5728 5726 5726 5730 5734 5735 5736 5737 5736 5735 5735 5734 5733 5732 5732 5732
5760 5752 5750 5750 5750 5750 5752 5751 5748 5745 5743 5742 5741 5740 5739 5736 5733 5732 5729 5727 5727 5726 5725 5725 5724 5721 5721 5723 5720 5717 5715 5720 5727 5733 5734 5733 5733 5733 5732 5732 5731 5731 5731
5751 5746 5743 5743 5742 5743 5744 5742 5740 5736 5733 5732 5731 5730 5732 5731 5729 5727 5725 5724 5723 5722 5721 5720 5720 5717 5715 5716 5717 5713 5708 5706 5712 5722 5727 5729 5728 5728 5728 5729 5730 5730 5731
5742 5740 5736 5734 5732 5731 5732 5730 5727 5723 5720 5720 5721 5722 5723 5724 5722 5721 5720 5719 5719 5718 5716 5716 5717 5715 5712 5709 5711 5712 5711 5710 5706 5708 5715 5720 5723 5723 5724 5726 5727 5728 5729
5732 5730 5727 5724 5721 5721 5720 5718 5716 5714 5712 5712 5713 5713 5713 5714 5714 5714 5713 5712 5712 5712 5712 5711 5711 5710 5709 5707 5706 5706 5706 5706 5706 5703 5703 5708 5713 5717 5719 5721 5722 5724 5726
5721 5719 5716 5713 5710 5711 5710 5708 5706 5704 5702 5701 5701 5701 5702 5702 5703 5704 5705 5705 5705 5705 5705 5705 5705 5705 5704 5703 5703 5702 5701 5700 5700 5700 5700 5701 5703 5709 5714 5717 5718 5720 5723